owner,sensor,date,latitude,longitude,vertical_datum,wind_speed,wind_to_direction,wind_speed_of_gust,qcFlag 
NOS,ioos:station:wmo:fpst2:1,2019-02-01T00:00:00Z,28.9360,-95.2940,15.0,8.8,95.0,11.1,'11111222,11111222,11111222' 
NOS,ioos:station:wmo:fpst2:1,2019-02-01T00:06:00Z,28.9360,-95.2940,15.0,7.5,88.0,8.9,'11111222,11111222,11111222' 
NOS,ioos:station:wmo:fpst2:1,2019-02-01T00:12:00Z,28.9360,-95.2940,15.0,7.7,85.0,8.9,'11111222,11111222,11111222' 
NOS,ioos:station:wmo:fpst2:1,2019-02-01T00:18:00Z,28.9360,-95.2940,15.0,8.1,84.0,9.4,'11111222,11111222,11111222' 
NOS,ioos:station:wmo:fpst2:1,2019-02-01T00:24:00Z,28.9360,-95.2940,15.0,8.1,84.0,9.4,'11111222,11111222,11111222' 
NOS,ioos:station:wmo:fpst2:1,2019-02-01T00:30:00Z,28.9360,-95.2940,15.0,8.2,96.0,9.9,'11111222,11111222,11111222' 
NOS,ioos:station:wmo:fpst2:1,2019-02-01T00:36:00Z,28.9360,-95.2940,15.0,10.0,104.0,12.0,'11111222,11111222,11111222' 
NOS,ioos:station:wmo:fpst2:1,2019-02-01T00:42:00Z,28.9360,-95.2940,15.0,10.6,97.0,11.8,'11111222,11111222,11111222' 
NOS,ioos:station:wmo:fpst2:1,2019-02-01T00:48:00Z,28.9360,-95.2940,15.0,10.2,84.0,11.3,'11111222,11111222,11111222' 
NOS,ioos:station:wmo:fpst2:1,2019-02-01T00:54:00Z,28.9360,-95.2940,15.0,10.7,94.0,11.9,'11111222,11111222,11111222' 
NOS,ioos:station:wmo:fpst2:1,2019-02-01T01:00:00Z,28.9360,-95.2940,15.0,9.8,90.0,11.8,'11111222,11111222,11111222' 
NOS,ioos:station:wmo:fpst2:1,2019-02-01T01:06:00Z,28.9360,-95.2940,15.0,8.9,90.0,10.5,'11111222,11111222,11111222' 
NOS,ioos:station:wmo:fpst2:1,2019-02-01T01:12:00Z,28.9360,-95.2940,15.0,11.7,77.0,13.1,'11111222,11111222,11111222' 
NOS,ioos:station:wmo:fpst2:1,2019-02-01T01:18:00Z,28.9360,-95.2940,15.0,11.0,82.0,14.0,'11111222,11111222,11111222' 
NOS,ioos:station:wmo:fpst2:1,2019-02-01T01:24:00Z,28.9360,-95.2940,15.0,8.3,91.0,10.9,'11111222,11111222,11111222' 
NOS,ioos:station:wmo:fpst2:1,2019-02-01T01:30:00Z,28.9360,-95.2940,15.0,9.3,89.0,10.4,'11111222,11111222,11111222' 
NOS,ioos:station:wmo:fpst2:1,2019-02-01T01:36:00Z,28.9360,-95.2940,15.0,10.3,85.0,11.5,'11111222,11111222,11111222' 
NOS,ioos:station:wmo:fpst2:1,2019-02-01T01:42:00Z,28.9360,-95.2940,15.0,11.7,89.0,12.2,'11111222,11111222,11111222' 
NOS,ioos:station:wmo:fpst2:1,2019-02-01T01:48:00Z,28.9360,-95.2940,15.0,10.5,90.0,11.7,'11111222,11111222,11111222' 
NOS,ioos:station:wmo:fpst2:1,2019-02-01T01:54:00Z,28.9360,-95.2940,15.0,10.4,84.0,12.2,'11111222,11111222,11111222' 
NOS,ioos:station:wmo:fpst2:1,2019-02-01T02:00:00Z,28.9360,-95.2940,15.0,10.4,86.0,11.6,'11111222,11111222,11111222' 
NOS,ioos:station:wmo:fpst2:1,2019-02-01T02:06:00Z,28.9360,-95.2940,15.0,9.6,97.0,11.5,'11111222,11111222,11111222' 
NOS,ioos:station:wmo:fpst2:1,2019-02-01T02:12:00Z,28.9360,-95.2940,15.0,10.3,105.0,12.0,'11111222,11111222,11111222' 
NOS,ioos:station:wmo:fpst2:1,2019-02-01T02:18:00Z,28.9360,-95.2940,15.0,11.0,90.0,13.1,'11111222,11111222,11111222' 
NOS,ioos:station:wmo:fpst2:1,2019-02-01T02:24:00Z,28.9360,-95.2940,15.0,12.2,99.0,13.9,'11111222,11111222,11111222' 
NOS,ioos:station:wmo:fpst2:1,2019-02-01T02:30:00Z,28.9360,-95.2940,15.0,12.2,99.0,13.9,'11111222,11111222,11111222' 
NOS,ioos:station:wmo:fpst2:1,2019-02-01T02:36:00Z,28.9360,-95.2940,15.0,13.1,110.0,14.7,'11111222,11111222,11111222' 
NOS,ioos:station:wmo:fpst2:1,2019-02-01T02:42:00Z,28.9360,-95.2940,15.0,11.4,106.0,12.6,'11111222,11111222,11111222' 
NOS,ioos:station:wmo:fpst2:1,2019-02-01T02:48:00Z,28.9360,-95.2940,15.0,10.7,101.0,12.0,'11111222,11111222,11111222' 
NOS,ioos:station:wmo:fpst2:1,2019-02-01T02:54:00Z,28.9360,-95.2940,15.0,11.6,103.0,13.1,'11111222,11111222,11111222' 
NOS,ioos:station:wmo:fpst2:1,2019-02-01T03:00:00Z,28.9360,-95.2940,15.0,11.3,103.0,13.3,'11111222,11111222,11111222' 
NOS,ioos:station:wmo:fpst2:1,2019-02-01T03:06:00Z,28.9360,-95.2940,15.0,10.7,102.0,12.1,'11111222,11111222,11111222' 
NOS,ioos:station:wmo:fpst2:1,2019-02-01T03:12:00Z,28.9360,-95.2940,15.0,10.1,104.0,11.9,'11111222,11111222,11111222' 
NOS,ioos:station:wmo:fpst2:1,2019-02-01T03:18:00Z,28.9360,-95.2940,15.0,9.8,105.0,11.5,'11111222,11111222,11111222' 
NOS,ioos:station:wmo:fpst2:1,2019-02-01T03:24:00Z,28.9360,-95.2940,15.0,10.2,105.0,11.8,'11111222,11111222,11111222' 
NOS,ioos:station:wmo:fpst2:1,2019-02-01T03:30:00Z,28.9360,-95.2940,15.0,9.6,103.0,12.1,'11111222,11111222,11111222' 
NOS,ioos:station:wmo:fpst2:1,2019-02-01T03:36:00Z,28.9360,-95.2940,15.0,11.0,97.0,12.3,'11111222,11111222,11111222' 
NOS,ioos:station:wmo:fpst2:1,2019-02-01T03:42:00Z,28.9360,-95.2940,15.0,11.0,97.0,12.3,'11111222,11111222,11111222' 
NOS,ioos:station:wmo:fpst2:1,2019-02-01T03:48:00Z,28.9360,-95.2940,15.0,10.5,100.0,12.1,'11111222,11111222,11111222' 
NOS,ioos:station:wmo:fpst2:1,2019-02-01T03:54:00Z,28.9360,-95.2940,15.0,10.6,104.0,12.0,'11111222,11111222,11111222' 
NOS,ioos:station:wmo:fpst2:1,2019-02-01T04:00:00Z,28.9360,-95.2940,15.0,10.1,108.0,11.5,'11111222,11111222,11111222' 
NOS,ioos:station:wmo:fpst2:1,2019-02-01T04:06:00Z,28.9360,-95.2940,15.0,10.9,107.0,12.1,'11111222,11111222,11111222' 
NOS,ioos:station:wmo:fpst2:1,2019-02-01T04:12:00Z,28.9360,-95.2940,15.0,10.9,108.0,12.4,'11111222,11111222,11111222' 
NOS,ioos:station:wmo:fpst2:1,2019-02-01T04:18:00Z,28.9360,-95.2940,15.0,10.2,107.0,12.1,'11111222,11111222,11111222' 
NOS,ioos:station:wmo:fpst2:1,2019-02-01T04:24:00Z,28.9360,-95.2940,15.0,10.2,110.0,11.6,'11111222,11111222,11111222' 
NOS,ioos:station:wmo:fpst2:1,2019-02-01T04:30:00Z,28.9360,-95.2940,15.0,9.9,112.0,11.0,'11111222,11111222,11111222' 
NOS,ioos:station:wmo:fpst2:1,2019-02-01T04:36:00Z,28.9360,-95.2940,15.0,9.7,109.0,11.4,'11111222,11111222,11111222' 
NOS,ioos:station:wmo:fpst2:1,2019-02-01T04:42:00Z,28.9360,-95.2940,15.0,9.9,111.0,11.1,'11111222,11111222,11111222' 
NOS,ioos:station:wmo:fpst2:1,2019-02-01T04:48:00Z,28.9360,-95.2940,15.0,9.8,109.0,11.0,'11111222,11111222,11111222' 
NOS,ioos:station:wmo:fpst2:1,2019-02-01T04:54:00Z,28.9360,-95.2940,15.0,9.7,105.0,11.6,'11111222,11111222,11111222' 
NOS,ioos:station:wmo:fpst2:1,2019-02-01T05:00:00Z,28.9360,-95.2940,15.0,8.7,99.0,10.8,'11111222,11111222,11111222' 
NOS,ioos:station:wmo:fpst2:1,2019-02-01T05:06:00Z,28.9360,-95.2940,15.0,8.8,101.0,9.8,'11111222,11111222,11111222' 
NOS,ioos:station:wmo:fpst2:1,2019-02-01T05:12:00Z,28.9360,-95.2940,15.0,9.0,104.0,10.2,'11111222,11111222,11111222' 
NOS,ioos:station:wmo:fpst2:1,2019-02-01T05:18:00Z,28.9360,-95.2940,15.0,8.5,109.0,9.7,'11111222,11111222,11111222' 
NOS,ioos:station:wmo:fpst2:1,2019-02-01T05:24:00Z,28.9360,-95.2940,15.0,8.5,108.0,9.8,'11111222,11111222,11111222' 
NOS,ioos:station:wmo:fpst2:1,2019-02-01T05:30:00Z,28.9360,-95.2940,15.0,8.2,109.0,9.3,'11111222,11111222,11111222' 
NOS,ioos:station:wmo:fpst2:1,2019-02-01T05:36:00Z,28.9360,-95.2940,15.0,7.3,111.0,8.9,'11111222,11111222,11111222' 
NOS,ioos:station:wmo:fpst2:1,2019-02-01T05:42:00Z,28.9360,-95.2940,15.0,7.6,117.0,8.6,'11111222,11111222,11111222' 
NOS,ioos:station:wmo:fpst2:1,2019-02-01T05:48:00Z,28.9360,-95.2940,15.0,7.0,124.0,8.3,'11111222,11111222,11111222' 
NOS,ioos:station:wmo:fpst2:1,2019-02-01T05:54:00Z,28.9360,-95.2940,15.0,6.3,120.0,7.8,'11111222,11111222,11111222' 
NOS,ioos:station:wmo:fpst2:1,2019-02-01T06:00:00Z,28.9360,-95.2940,15.0,6.1,117.0,7.4,'11111222,11111222,11111222' 
NOS,ioos:station:wmo:fpst2:1,2019-02-01T06:06:00Z,28.9360,-95.2940,15.0,5.4,114.0,6.7,'11111222,11111222,11111222' 
NOS,ioos:station:wmo:fpst2:1,2019-02-01T06:12:00Z,28.9360,-95.2940,15.0,6.4,116.0,7.1,'11111222,11111222,11111222' 
NOS,ioos:station:wmo:fpst2:1,2019-02-01T06:18:00Z,28.9360,-95.2940,15.0,6.4,116.0,7.1,'11111222,11111222,11111222' 
NOS,ioos:station:wmo:fpst2:1,2019-02-01T06:24:00Z,28.9360,-95.2940,15.0,6.4,111.0,6.9,'11111222,11111222,11111222' 
NOS,ioos:station:wmo:fpst2:1,2019-02-01T06:30:00Z,28.9360,-95.2940,15.0,6.3,109.0,7.3,'11111222,11111222,11111222' 
NOS,ioos:station:wmo:fpst2:1,2019-02-01T06:36:00Z,28.9360,-95.2940,15.0,6.2,109.0,7.3,'11111222,11111222,11111222' 
NOS,ioos:station:wmo:fpst2:1,2019-02-01T06:42:00Z,28.9360,-95.2940,15.0,5.9,109.0,7.1,'11111222,11111222,11111222' 
NOS,ioos:station:wmo:fpst2:1,2019-02-01T06:48:00Z,28.9360,-95.2940,15.0,5.3,107.0,6.6,'11111222,11111222,11111222' 
NOS,ioos:station:wmo:fpst2:1,2019-02-01T06:54:00Z,28.9360,-95.2940,15.0,5.8,106.0,6.6,'11111222,11111222,11111222' 
NOS,ioos:station:wmo:fpst2:1,2019-02-01T07:00:00Z,28.9360,-95.2940,15.0,5.6,102.0,6.5,'11111222,11111222,11111222' 
NOS,ioos:station:wmo:fpst2:1,2019-02-01T07:06:00Z,28.9360,-95.2940,15.0,5.6,106.0,6.3,'11111222,11111222,11111222' 
NOS,ioos:station:wmo:fpst2:1,2019-02-01T07:12:00Z,28.9360,-95.2940,15.0,4.5,104.0,5.6,'11111222,11111222,11111222' 
NOS,ioos:station:wmo:fpst2:1,2019-02-01T07:18:00Z,28.9360,-95.2940,15.0,4.3,101.0,4.9,'11111222,11111222,11111222' 
NOS,ioos:station:wmo:fpst2:1,2019-02-01T07:24:00Z,28.9360,-95.2940,15.0,4.1,98.0,4.3,'11111222,11111222,11111222' 
NOS,ioos:station:wmo:fpst2:1,2019-02-01T07:30:00Z,28.9360,-95.2940,15.0,3.2,84.0,4.0,'11111222,11111222,11111222' 
NOS,ioos:station:wmo:fpst2:1,2019-02-01T07:36:00Z,28.9360,-95.2940,15.0,2.8,76.0,3.2,'11111222,11111222,11111222' 
NOS,ioos:station:wmo:fpst2:1,2019-02-01T07:42:00Z,28.9360,-95.2940,15.0,2.9,82.0,3.1,'11111222,11111222,11111222' 
NOS,ioos:station:wmo:fpst2:1,2019-02-01T07:48:00Z,28.9360,-95.2940,15.0,3.0,99.0,3.5,'11111222,11111222,11111222' 
NOS,ioos:station:wmo:fpst2:1,2019-02-01T07:54:00Z,28.9360,-95.2940,15.0,3.3,100.0,3.8,'11111222,11111222,11111222' 
NOS,ioos:station:wmo:fpst2:1,2019-02-01T08:00:00Z,28.9360,-95.2940,15.0,3.1,96.0,3.9,'11111222,11111222,11111222' 
NOS,ioos:station:wmo:fpst2:1,2019-02-01T08:06:00Z,28.9360,-95.2940,15.0,3.5,95.0,4.0,'11111222,11111222,11111222' 
NOS,ioos:station:wmo:fpst2:1,2019-02-01T08:12:00Z,28.9360,-95.2940,15.0,3.5,96.0,4.5,'11111222,11111222,11111222' 
NOS,ioos:station:wmo:fpst2:1,2019-02-01T08:18:00Z,28.9360,-95.2940,15.0,3.4,87.0,3.7,'11111222,11111222,11111222' 
NOS,ioos:station:wmo:fpst2:1,2019-02-01T08:24:00Z,28.9360,-95.2940,15.0,2.7,64.0,3.5,'11111222,11111222,11111222' 
NOS,ioos:station:wmo:fpst2:1,2019-02-01T08:30:00Z,28.9360,-95.2940,15.0,2.5,51.0,2.8,'11111222,11111222,11111222' 
NOS,ioos:station:wmo:fpst2:1,2019-02-01T08:36:00Z,28.9360,-95.2940,15.0,2.8,40.0,3.2,'11111222,11111222,11111222' 
NOS,ioos:station:wmo:fpst2:1,2019-02-01T08:42:00Z,28.9360,-95.2940,15.0,3.0,22.0,3.3,'11111222,11111222,11111222' 
NOS,ioos:station:wmo:fpst2:1,2019-02-01T08:48:00Z,28.9360,-95.2940,15.0,2.9,11.0,3.3,'11111222,11111222,11111222' 
NOS,ioos:station:wmo:fpst2:1,2019-02-01T08:54:00Z,28.9360,-95.2940,15.0,2.7,9.0,3.3,'11111222,11111222,11111222' 
NOS,ioos:station:wmo:fpst2:1,2019-02-01T09:00:00Z,28.9360,-95.2940,15.0,3.0,15.0,3.4,'11111222,11111222,11111222' 
NOS,ioos:station:wmo:fpst2:1,2019-02-01T09:06:00Z,28.9360,-95.2940,15.0,2.9,32.0,3.6,'11111222,11111222,11111222' 
NOS,ioos:station:wmo:fpst2:1,2019-02-01T09:12:00Z,28.9360,-95.2940,15.0,3.5,33.0,4.0,'11111222,11111222,11111222' 
NOS,ioos:station:wmo:fpst2:1,2019-02-01T09:18:00Z,28.9360,-95.2940,15.0,3.5,18.0,4.0,'11111222,11111222,11111222' 
NOS,ioos:station:wmo:fpst2:1,2019-02-01T09:24:00Z,28.9360,-95.2940,15.0,4.1,4.0,4.8,'11111222,11111222,11111222' 
NOS,ioos:station:wmo:fpst2:1,2019-02-01T09:30:00Z,28.9360,-95.2940,15.0,4.0,355.0,4.7,'11111222,11111222,11111222' 
NOS,ioos:station:wmo:fpst2:1,2019-02-01T09:36:00Z,28.9360,-95.2940,15.0,3.0,1.0,3.9,'11111222,11111222,11111222' 
NOS,ioos:station:wmo:fpst2:1,2019-02-01T09:42:00Z,28.9360,-95.2940,15.0,3.7,13.0,4.3,'11111222,11111222,11111222' 
NOS,ioos:station:wmo:fpst2:1,2019-02-01T09:48:00Z,28.9360,-95.2940,15.0,3.2,26.0,4.3,'11111222,11111222,11111222' 
NOS,ioos:station:wmo:fpst2:1,2019-02-01T09:54:00Z,28.9360,-95.2940,15.0,3.0,8.0,4.2,'11111222,11111222,11111222' 
NOS,ioos:station:wmo:fpst2:1,2019-02-01T10:00:00Z,28.9360,-95.2940,15.0,2.3,352.0,2.8,'11111222,11111222,11111222' 
NOS,ioos:station:wmo:fpst2:1,2019-02-01T10:06:00Z,28.9360,-95.2940,15.0,2.1,2.0,2.7,'11111222,11111222,11111222' 
NOS,ioos:station:wmo:fpst2:1,2019-02-01T10:12:00Z,28.9360,-95.2940,15.0,3.6,11.0,4.1,'11111222,11111222,11111222' 
NOS,ioos:station:wmo:fpst2:1,2019-02-01T10:18:00Z,28.9360,-95.2940,15.0,3.4,12.0,4.3,'11111222,11111222,11111222' 
NOS,ioos:station:wmo:fpst2:1,2019-02-01T10:24:00Z,28.9360,-95.2940,15.0,3.9,11.0,4.4,'11111222,11111222,11111222' 
NOS,ioos:station:wmo:fpst2:1,2019-02-01T10:30:00Z,28.9360,-95.2940,15.0,3.8,9.0,4.6,'11111222,11111222,11111222' 
NOS,ioos:station:wmo:fpst2:1,2019-02-01T10:36:00Z,28.9360,-95.2940,15.0,4.2,15.0,4.9,'11111222,11111222,11111222' 
NOS,ioos:station:wmo:fpst2:1,2019-02-01T10:42:00Z,28.9360,-95.2940,15.0,4.3,14.0,5.2,'11111222,11111222,11111222' 
NOS,ioos:station:wmo:fpst2:1,2019-02-01T10:48:00Z,28.9360,-95.2940,15.0,3.9,8.0,5.2,'11111222,11111222,11111222' 
NOS,ioos:station:wmo:fpst2:1,2019-02-01T10:54:00Z,28.9360,-95.2940,15.0,3.6,9.0,4.3,'11111222,11111222,11111222' 
NOS,ioos:station:wmo:fpst2:1,2019-02-01T11:00:00Z,28.9360,-95.2940,15.0,4.0,8.0,4.7,'11111222,11111222,11111222' 
NOS,ioos:station:wmo:fpst2:1,2019-02-01T11:06:00Z,28.9360,-95.2940,15.0,4.0,8.0,4.9,'11111222,11111222,11111222' 
NOS,ioos:station:wmo:fpst2:1,2019-02-01T11:12:00Z,28.9360,-95.2940,15.0,4.1,10.0,5.1,'11111222,11111222,11111222' 
NOS,ioos:station:wmo:fpst2:1,2019-02-01T11:18:00Z,28.9360,-95.2940,15.0,4.7,11.0,5.6,'11111222,11111222,11111222' 
NOS,ioos:station:wmo:fpst2:1,2019-02-01T11:24:00Z,28.9360,-95.2940,15.0,4.8,11.0,5.8,'11111222,11111222,11111222' 
NOS,ioos:station:wmo:fpst2:1,2019-02-01T11:30:00Z,28.9360,-95.2940,15.0,3.9,6.0,5.5,'11111222,11111222,11111222' 
NOS,ioos:station:wmo:fpst2:1,2019-02-01T11:36:00Z,28.9360,-95.2940,15.0,4.1,12.0,5.1,'11111222,11111222,11111222' 
NOS,ioos:station:wmo:fpst2:1,2019-02-01T11:42:00Z,28.9360,-95.2940,15.0,4.5,12.0,5.5,'11111222,11111222,11111222' 
NOS,ioos:station:wmo:fpst2:1,2019-02-01T11:48:00Z,28.9360,-95.2940,15.0,4.5,17.0,5.4,'11111222,11111222,11111222' 
NOS,ioos:station:wmo:fpst2:1,2019-02-01T11:54:00Z,28.9360,-95.2940,15.0,4.3,14.0,5.2,'11111222,11111222,11111222' 
NOS,ioos:station:wmo:fpst2:1,2019-02-01T12:00:00Z,28.9360,-95.2940,15.0,4.1,13.0,4.8,'11111222,11111222,11111222' 
NOS,ioos:station:wmo:fpst2:1,2019-02-01T12:06:00Z,28.9360,-95.2940,15.0,3.7,10.0,4.9,'11111222,11111222,11111222' 
NOS,ioos:station:wmo:fpst2:1,2019-02-01T12:12:00Z,28.9360,-95.2940,15.0,4.2,11.0,5.1,'11111222,11111222,11111222' 
NOS,ioos:station:wmo:fpst2:1,2019-02-01T12:18:00Z,28.9360,-95.2940,15.0,4.1,17.0,5.3,'11111222,11111222,11111222' 
NOS,ioos:station:wmo:fpst2:1,2019-02-01T12:24:00Z,28.9360,-95.2940,15.0,5.0,21.0,5.5,'11111222,11111222,11111222' 
NOS,ioos:station:wmo:fpst2:1,2019-02-01T12:30:00Z,28.9360,-95.2940,15.0,5.0,24.0,5.5,'11111222,11111222,11111222' 
NOS,ioos:station:wmo:fpst2:1,2019-02-01T12:36:00Z,28.9360,-95.2940,15.0,5.5,28.0,6.0,'11111222,11111222,11111222' 
NOS,ioos:station:wmo:fpst2:1,2019-02-01T12:42:00Z,28.9360,-95.2940,15.0,5.3,28.0,6.1,'11111222,11111222,11111222' 
NOS,ioos:station:wmo:fpst2:1,2019-02-01T12:48:00Z,28.9360,-95.2940,15.0,4.9,30.0,5.5,'11111222,11111222,11111222' 
NOS,ioos:station:wmo:fpst2:1,2019-02-01T12:54:00Z,28.9360,-95.2940,15.0,4.2,29.0,4.9,'11111222,11111222,11111222' 
NOS,ioos:station:wmo:fpst2:1,2019-02-01T13:00:00Z,28.9360,-95.2940,15.0,4.6,24.0,5.1,'11111222,11111222,11111222' 
NOS,ioos:station:wmo:fpst2:1,2019-02-01T13:06:00Z,28.9360,-95.2940,15.0,4.4,19.0,5.3,'11111222,11111222,11111222' 
NOS,ioos:station:wmo:fpst2:1,2019-02-01T13:12:00Z,28.9360,-95.2940,15.0,4.1,10.0,5.3,'11111222,11111222,11111222' 
NOS,ioos:station:wmo:fpst2:1,2019-02-01T13:18:00Z,28.9360,-95.2940,15.0,5.2,21.0,5.8,'11111222,11111222,11111222' 
NOS,ioos:station:wmo:fpst2:1,2019-02-01T13:24:00Z,28.9360,-95.2940,15.0,5.2,25.0,5.8,'11111222,11111222,11111222' 
NOS,ioos:station:wmo:fpst2:1,2019-02-01T13:30:00Z,28.9360,-95.2940,15.0,6.1,27.0,6.5,'11111222,11111222,11111222' 
NOS,ioos:station:wmo:fpst2:1,2019-02-01T13:36:00Z,28.9360,-95.2940,15.0,5.9,27.0,6.5,'11111222,11111222,11111222' 
NOS,ioos:station:wmo:fpst2:1,2019-02-01T13:42:00Z,28.9360,-95.2940,15.0,5.9,26.0,6.5,'11111222,11111222,11111222' 
NOS,ioos:station:wmo:fpst2:1,2019-02-01T13:48:00Z,28.9360,-95.2940,15.0,6.1,25.0,6.6,'11111222,11111222,11111222' 
NOS,ioos:station:wmo:fpst2:1,2019-02-01T13:54:00Z,28.9360,-95.2940,15.0,6.1,25.0,6.8,'11111222,11111222,11111222' 
NOS,ioos:station:wmo:fpst2:1,2019-02-01T14:00:00Z,28.9360,-95.2940,15.0,5.6,21.0,6.6,'11111222,11111222,11111222' 
NOS,ioos:station:wmo:fpst2:1,2019-02-01T14:06:00Z,28.9360,-95.2940,15.0,4.6,19.0,5.5,'11111222,11111222,11111222' 
NOS,ioos:station:wmo:fpst2:1,2019-02-01T14:12:00Z,28.9360,-95.2940,15.0,4.7,18.0,5.4,'11111222,11111222,11111222' 
NOS,ioos:station:wmo:fpst2:1,2019-02-01T14:18:00Z,28.9360,-95.2940,15.0,5.1,17.0,5.8,'11111222,11111222,11111222' 
NOS,ioos:station:wmo:fpst2:1,2019-02-01T14:24:00Z,28.9360,-95.2940,15.0,5.1,12.0,6.1,'11111222,11111222,11111222' 
NOS,ioos:station:wmo:fpst2:1,2019-02-01T14:30:00Z,28.9360,-95.2940,15.0,5.3,13.0,6.0,'11111222,11111222,11111222' 
NOS,ioos:station:wmo:fpst2:1,2019-02-01T14:36:00Z,28.9360,-95.2940,15.0,4.3,20.0,5.7,'11111222,11111222,11111222' 
NOS,ioos:station:wmo:fpst2:1,2019-02-01T14:42:00Z,28.9360,-95.2940,15.0,4.3,24.0,5.2,'11111222,11111222,11111222' 
NOS,ioos:station:wmo:fpst2:1,2019-02-01T14:48:00Z,28.9360,-95.2940,15.0,4.6,18.0,5.7,'11111222,11111222,11111222' 
NOS,ioos:station:wmo:fpst2:1,2019-02-01T14:54:00Z,28.9360,-95.2940,15.0,4.9,19.0,6.2,'11111222,11111222,11111222' 
NOS,ioos:station:wmo:fpst2:1,2019-02-01T15:00:00Z,28.9360,-95.2940,15.0,4.8,21.0,5.8,'11111222,11111222,11111222' 
NOS,ioos:station:wmo:fpst2:1,2019-02-01T15:06:00Z,28.9360,-95.2940,15.0,4.9,26.0,5.5,'11111222,11111222,11111222' 
NOS,ioos:station:wmo:fpst2:1,2019-02-01T15:12:00Z,28.9360,-95.2940,15.0,5.2,27.0,5.7,'11111222,11111222,11111222' 
NOS,ioos:station:wmo:fpst2:1,2019-02-01T15:18:00Z,28.9360,-95.2940,15.0,5.0,26.0,5.7,'11111222,11111222,11111222' 
NOS,ioos:station:wmo:fpst2:1,2019-02-01T15:24:00Z,28.9360,-95.2940,15.0,5.6,24.0,6.1,'11111222,11111222,11111222' 
NOS,ioos:station:wmo:fpst2:1,2019-02-01T15:30:00Z,28.9360,-95.2940,15.0,5.6,24.0,6.3,'11111222,11111222,11111222' 
NOS,ioos:station:wmo:fpst2:1,2019-02-01T15:36:00Z,28.9360,-95.2940,15.0,6.0,23.0,6.5,'11111222,11111222,11111222' 
NOS,ioos:station:wmo:fpst2:1,2019-02-01T15:42:00Z,28.9360,-95.2940,15.0,6.5,26.0,6.9,'11111222,11111222,11111222' 
NOS,ioos:station:wmo:fpst2:1,2019-02-01T15:48:00Z,28.9360,-95.2940,15.0,6.8,27.0,7.2,'11111222,11111222,11111222' 
NOS,ioos:station:wmo:fpst2:1,2019-02-01T15:54:00Z,28.9360,-95.2940,15.0,7.0,26.0,7.7,'11111222,11111222,11111222' 
NOS,ioos:station:wmo:fpst2:1,2019-02-01T16:00:00Z,28.9360,-95.2940,15.0,6.7,28.0,7.6,'11111222,11111222,11111222' 
NOS,ioos:station:wmo:fpst2:1,2019-02-01T16:06:00Z,28.9360,-95.2940,15.0,6.9,30.0,7.5,'11111222,11111222,11111222' 
NOS,ioos:station:wmo:fpst2:1,2019-02-01T16:12:00Z,28.9360,-95.2940,15.0,7.3,28.0,8.2,'11111222,11111222,11111222' 
NOS,ioos:station:wmo:fpst2:1,2019-02-01T16:18:00Z,28.9360,-95.2940,15.0,6.3,35.0,7.3,'11111222,11111222,11111222' 
NOS,ioos:station:wmo:fpst2:1,2019-02-01T16:24:00Z,28.9360,-95.2940,15.0,6.6,29.0,7.3,'11111222,11111222,11111222' 
NOS,ioos:station:wmo:fpst2:1,2019-02-01T16:30:00Z,28.9360,-95.2940,15.0,6.5,30.0,8.1,'11111222,11111222,11111222' 
NOS,ioos:station:wmo:fpst2:1,2019-02-01T16:36:00Z,28.9360,-95.2940,15.0,6.1,29.0,6.8,'11111222,11111222,11111222' 
NOS,ioos:station:wmo:fpst2:1,2019-02-01T16:42:00Z,28.9360,-95.2940,15.0,7.2,28.0,7.7,'11111222,11111222,11111222' 
NOS,ioos:station:wmo:fpst2:1,2019-02-01T16:48:00Z,28.9360,-95.2940,15.0,7.2,28.0,7.7,'11111222,11111222,11111222' 
NOS,ioos:station:wmo:fpst2:1,2019-02-01T16:54:00Z,28.9360,-95.2940,15.0,6.4,33.0,7.6,'11111222,11111222,11111222' 
NOS,ioos:station:wmo:fpst2:1,2019-02-01T17:00:00Z,28.9360,-95.2940,15.0,6.3,32.0,7.0,'11111222,11111222,11111222' 
NOS,ioos:station:wmo:fpst2:1,2019-02-01T17:06:00Z,28.9360,-95.2940,15.0,6.3,32.0,7.0,'11111222,11111222,11111222' 
NOS,ioos:station:wmo:fpst2:1,2019-02-01T17:12:00Z,28.9360,-95.2940,15.0,6.6,31.0,7.3,'11111222,11111222,11111222' 
NOS,ioos:station:wmo:fpst2:1,2019-02-01T17:18:00Z,28.9360,-95.2940,15.0,6.5,28.0,7.4,'11111222,11111222,11111222' 
NOS,ioos:station:wmo:fpst2:1,2019-02-01T17:24:00Z,28.9360,-95.2940,15.0,6.8,26.0,7.8,'11111222,11111222,11111222' 
NOS,ioos:station:wmo:fpst2:1,2019-02-01T17:30:00Z,28.9360,-95.2940,15.0,6.5,28.0,7.6,'11111222,11111222,11111222' 
NOS,ioos:station:wmo:fpst2:1,2019-02-01T17:36:00Z,28.9360,-95.2940,15.0,7.2,27.0,8.4,'11111222,11111222,11111222' 
NOS,ioos:station:wmo:fpst2:1,2019-02-01T17:42:00Z,28.9360,-95.2940,15.0,7.2,27.0,8.4,'11111222,11111222,11111222' 
NOS,ioos:station:wmo:fpst2:1,2019-02-01T17:48:00Z,28.9360,-95.2940,15.0,7.5,29.0,8.1,'11111222,11111222,11111222' 
NOS,ioos:station:wmo:fpst2:1,2019-02-01T17:54:00Z,28.9360,-95.2940,15.0,7.6,29.0,8.5,'11111222,11111222,11111222' 
NOS,ioos:station:wmo:fpst2:1,2019-02-01T18:00:00Z,28.9360,-95.2940,15.0,7.1,30.0,8.0,'11111222,11111222,11111222' 
NOS,ioos:station:wmo:fpst2:1,2019-02-01T18:06:00Z,28.9360,-95.2940,15.0,6.2,35.0,8.1,'11111222,11111222,11111222' 
NOS,ioos:station:wmo:fpst2:1,2019-02-01T18:12:00Z,28.9360,-95.2940,15.0,6.6,38.0,7.1,'11111222,11111222,11111222' 
NOS,ioos:station:wmo:fpst2:1,2019-02-01T18:18:00Z,28.9360,-95.2940,15.0,7.2,36.0,7.9,'11111222,11111222,11111222' 
NOS,ioos:station:wmo:fpst2:1,2019-02-01T18:24:00Z,28.9360,-95.2940,15.0,8.2,39.0,9.3,'11111222,11111222,11111222' 
NOS,ioos:station:wmo:fpst2:1,2019-02-01T18:30:00Z,28.9360,-95.2940,15.0,8.2,38.0,9.3,'11111222,11111222,11111222' 
NOS,ioos:station:wmo:fpst2:1,2019-02-01T18:36:00Z,28.9360,-95.2940,15.0,8.2,41.0,9.3,'11111222,11111222,11111222' 
NOS,ioos:station:wmo:fpst2:1,2019-02-01T18:42:00Z,28.9360,-95.2940,15.0,8.2,40.0,9.1,'11111222,11111222,11111222' 
NOS,ioos:station:wmo:fpst2:1,2019-02-01T18:48:00Z,28.9360,-95.2940,15.0,7.8,39.0,9.1,'11111222,11111222,11111222' 
NOS,ioos:station:wmo:fpst2:1,2019-02-01T18:54:00Z,28.9360,-95.2940,15.0,7.9,43.0,9.1,'11111222,11111222,11111222' 
NOS,ioos:station:wmo:fpst2:1,2019-02-01T19:00:00Z,28.9360,-95.2940,15.0,8.4,42.0,9.4,'11111222,11111222,11111222' 
NOS,ioos:station:wmo:fpst2:1,2019-02-01T19:06:00Z,28.9360,-95.2940,15.0,8.4,41.0,9.1,'11111222,11111222,11111222' 
NOS,ioos:station:wmo:fpst2:1,2019-02-01T19:12:00Z,28.9360,-95.2940,15.0,8.1,42.0,9.6,'11111222,11111222,11111222' 
NOS,ioos:station:wmo:fpst2:1,2019-02-01T19:18:00Z,28.9360,-95.2940,15.0,8.4,44.0,9.5,'11111222,11111222,11111222' 
NOS,ioos:station:wmo:fpst2:1,2019-02-01T19:24:00Z,28.9360,-95.2940,15.0,8.6,45.0,10.2,'11111222,11111222,11111222' 
NOS,ioos:station:wmo:fpst2:1,2019-02-01T19:30:00Z,28.9360,-95.2940,15.0,9.2,46.0,10.3,'11111222,11111222,11111222' 
NOS,ioos:station:wmo:fpst2:1,2019-02-01T19:36:00Z,28.9360,-95.2940,15.0,9.1,45.0,10.3,'11111222,11111222,11111222' 
NOS,ioos:station:wmo:fpst2:1,2019-02-01T19:42:00Z,28.9360,-95.2940,15.0,8.2,44.0,9.4,'11111222,11111222,11111222' 
NOS,ioos:station:wmo:fpst2:1,2019-02-01T19:48:00Z,28.9360,-95.2940,15.0,8.5,45.0,9.8,'11111222,11111222,11111222' 
NOS,ioos:station:wmo:fpst2:1,2019-02-01T19:54:00Z,28.9360,-95.2940,15.0,8.7,46.0,9.6,'11111222,11111222,11111222' 
NOS,ioos:station:wmo:fpst2:1,2019-02-01T20:00:00Z,28.9360,-95.2940,15.0,8.8,44.0,9.7,'11111222,11111222,11111222' 
NOS,ioos:station:wmo:fpst2:1,2019-02-01T20:06:00Z,28.9360,-95.2940,15.0,8.7,43.0,10.1,'11111222,11111222,11111222' 
NOS,ioos:station:wmo:fpst2:1,2019-02-01T20:12:00Z,28.9360,-95.2940,15.0,8.4,44.0,9.4,'11111222,11111222,11111222' 
NOS,ioos:station:wmo:fpst2:1,2019-02-01T20:18:00Z,28.9360,-95.2940,15.0,8.6,44.0,9.4,'11111222,11111222,11111222' 
NOS,ioos:station:wmo:fpst2:1,2019-02-01T20:24:00Z,28.9360,-95.2940,15.0,8.6,43.0,10.4,'11111222,11111222,11111222' 
NOS,ioos:station:wmo:fpst2:1,2019-02-01T20:30:00Z,28.9360,-95.2940,15.0,9.4,45.0,10.7,'11111222,11111222,11111222' 